Home   Weather   Grenoble   Past weeks

Flag for France Past Weather in Grenoble, Rhône-Alpes, France — Yesterday and Last 2 Weeks

57 °F

Passing clouds.

Feels Like: 57 °F
Forecast: 60 / 72 °F
Wind: 3 mph from East

Location: Grenoble / St. Geoirs

Current Time: Oct 24, 2016 at 7:21:33 AM

Latest Report: Oct 24, 2016 at 7:00 AM

Visibility: N/A

Pressure: 29.86 "Hg

Humidity: 82%

Dew Point: 52 °F

Location of GrenobleLocation

Past Weather in Grenoble — Graph


Grenoble Temperature Yesterday

Maximum temperature yesterday: 59 °F (at 3:00 PM)
Minimum temperature yesterday: 45 °F (at 2:30 AM)
Average temperature yesterday: 51 °F

High & Low Weather Summary for the Past Weeks

High66 °F (Oct 16, 3:00 PM)100% (Oct 9, 7:30 AM)30.30 "Hg (Oct 9, 7:30 AM)
Low27 °F (Oct 12, 8:00 AM)51% (Oct 12, 1:30 PM)29.59 "Hg (Oct 14, 10:30 AM)
Average49 °F85%30.01 "Hg
* Reported Oct 9 6:00 AM — Oct 24 6:00 AM, Grenoble, Weather by CustomWeather, © 2016

Note: Actual official high and low records may vary slightly from our data, if they occured in-between our weather recording intervals... More about our weather records


Grenoble Weather History for the Previous 24 Hours

Scroll right to see more
Time TempWeatherWind HumidityBarometerVisibility
6:00 AM
Mon, Oct 24
54 °FClear.9 mph94%29.86 "Hg10 mi
5:30 AM52 °FClear.9 mph94%29.86 "Hg10 mi
5:00 AM54 °FClear.7 mph94%29.86 "Hg10 mi
4:30 AM54 °FClear.8 mph94%29.86 "Hg10 mi
4:00 AM52 °FClear.5 mph100%29.86 "Hg10 mi
3:30 AM52 °FPassing clouds.5 mph100%29.89 "HgN/A
3:00 AM54 °FMostly cloudy.1 mph94%29.89 "HgN/A
2:30 AM52 °FOvercast.1 mph100%29.92 "HgN/A
2:00 AM52 °FClear.2 mph100%29.89 "Hg5 mi
1:30 AM52 °FClear.3 mph100%29.89 "Hg10 mi
1:00 AM52 °FOvercast.2 mph100%29.89 "HgN/A
12:30 AM52 °FMostly cloudy.3 mph100%29.89 "Hg5 mi
12:00 AM50 °FPassing clouds.3 mph100%29.89 "Hg4 mi
11:30 PM
Sun, Oct 23
50 °FPassing clouds.5 mph100%29.89 "Hg4 mi
11:00 PM50 °FClear.5 mph100%29.86 "Hg5 mi
10:30 PM50 °FClear.7 mph100%29.86 "Hg4 mi
10:00 PM50 °FClear.2 mph100%29.89 "Hg4 mi
9:30 PM52 °FClear.3 mph94%29.86 "Hg5 mi
9:00 PM52 °FClear.No wind100%29.86 "Hg10 mi
8:30 PM54 °FClear.No wind94%29.86 "Hg10 mi
8:00 PM54 °FClear.1 mph100%29.86 "Hg10 mi
7:30 PM55 °FClear.9 mph94%29.86 "Hg10 mi
7:00 PM55 °FClear.7 mph94%29.83 "Hg10 mi
6:30 PM57 °FPartly sunny.9 mph88%29.83 "HgN/A
6:00 PM57 °FScattered clouds.7 mph94%29.83 "HgN/A
5:30 PM59 °FBroken clouds.7 mph88%29.80 "HgN/A
5:00 PM59 °FBroken clouds.7 mph88%29.80 "HgN/A
4:30 PM59 °FSunny.7 mph88%29.80 "Hg10 mi
4:00 PM59 °FBroken clouds.10 mph88%29.80 "HgN/A
3:30 PM59 °FScattered clouds.2 mph82%29.80 "HgN/A
3:00 PM59 °FScattered clouds.3 mph82%29.80 "HgN/A
2:30 PM57 °FPartly sunny.2 mph88%29.80 "HgN/A
2:00 PM57 °FMostly cloudy.2 mph82%29.80 "HgN/A
1:30 PM55 °FMostly cloudy.No wind88%29.83 "HgN/A
1:00 PM55 °FMostly cloudy.3 mph82%29.83 "HgN/A
12:30 PM55 °FBroken clouds.No wind82%29.83 "HgN/A
12:00 PM54 °FPartly sunny.3 mph88%29.83 "HgN/A
11:30 AM54 °FCloudy.6 mph82%29.80 "HgN/A
11:00 AM52 °FMostly cloudy.7 mph88%29.80 "HgN/A
10:30 AM50 °FPartly sunny.5 mph88%29.83 "HgN/A
10:00 AM48 °FMostly cloudy.7 mph94%29.80 "HgN/A
9:30 AM48 °FPartly sunny.8 mph94%29.80 "HgN/A
9:00 AM46 °FMostly cloudy.7 mph93%29.83 "HgN/A
8:30 AM46 °FLight rain. Mostly cloudy.7 mph93%29.83 "HgN/A
8:00 AM46 °FMostly cloudy.7 mph93%29.83 "HgN/A
7:30 AM46 °FLight rain. Overcast.6 mph93%29.80 "HgN/A
7:00 AM46 °FLight rain. Mostly cloudy.6 mph93%29.80 "HgN/A
Weather by CustomWeather, © 2016

See weather overviewHow to use our weather pages